TimeAKST,TemperatureF,Dew PointF,Humidity,Sea Level PressureIn,VisibilityMPH,Wind Direction,Wind SpeedMPH,Gust SpeedMPH,PrecipitationIn,Events,Conditions,WindDirDegrees,DateUTC
12:58 AM,6.1,-2.0,69,30.09,10.0,NE,6.9,-,N/A,,Clear,40,2012-11-17 09:58:00
1:58 AM,7.0,-2.9,64,30.10,10.0,NNE,8.1,-,N/A,,Clear,20,2012-11-17 10:58:00
3:58 AM,3.9,-4.0,70,30.07,10.0,North,11.5,-,N/A,,Clear,360,2012-11-17 12:58:00
4:58 AM,3.9,-5.1,66,30.07,10.0,North,6.9,-,N/A,,Clear,360,2012-11-17 13:58:00
5:58 AM,5.0,-5.1,63,30.06,10.0,North,5.8,-,N/A,,Clear,360,2012-11-17 14:58:00
6:58 AM,6.1,-5.1,60,30.05,10.0,NNE,10.4,18.4,N/A,,Clear,30,2012-11-17 15:58:00
7:58 AM,7.0,-6.0,55,30.04,9.0,NNE,13.8,19.6,N/A,,Clear,20,2012-11-17 16:58:00
8:58 AM,8.1,-6.0,53,30.04,9.0,North,9.2,19.6,N/A,,Clear,10,2012-11-17 17:58:00
9:58 AM,7.0,-6.0,55,30.02,10.0,North,9.2,-,N/A,,Clear,10,2012-11-17 18:58:00
10:58 AM,8.1,-7.1,50,30.01,8.0,NNE,12.7,23.0,N/A,,Clear,30,2012-11-17 19:58:00
11:58 AM,10.0,-7.1,46,30.01,8.0,North,11.5,18.4,N/A,,Clear,10,2012-11-17 20:58:00
12:58 PM,10.9,-7.1,44,29.99,8.0,North,15.0,-,N/A,,Clear,360,2012-11-17 21:58:00
1:58 PM,12.9,-8.0,39,29.99,8.0,North,11.5,18.4,N/A,,Clear,10,2012-11-17 22:58:00
2:58 PM,12.9,-7.1,41,29.97,8.0,NNE,11.5,16.1,N/A,,Clear,20,2012-11-17 23:58:00
3:58 PM,12.0,-7.1,42,29.96,8.0,North,13.8,20.7,N/A,,Clear,10,2012-11-18 00:58:00
4:58 PM,10.9,-7.1,44,29.96,8.0,NNW,11.5,-,N/A,,Clear,340,2012-11-18 01:58:00
5:58 PM,9.0,-7.1,48,29.96,10.0,NNW,12.7,-,N/A,,Clear,340,2012-11-18 02:58:00
6:58 PM,8.1,-7.1,50,29.95,10.0,North,12.7,-,N/A,,Clear,350,2012-11-18 03:58:00
7:58 PM,9.0,-7.1,48,29.94,10.0,North,10.4,-,N/A,,Clear,360,2012-11-18 04:58:00
8:58 PM,9.0,-6.0,51,29.92,10.0,North,15.0,-,N/A,,Clear,350,2012-11-18 05:58:00
9:58 PM,9.0,-2.0,61,29.93,10.0,North,5.8,-,N/A,,Clear,360,2012-11-18 06:58:00
10:58 PM,8.1,-0.0,70,29.92,9.0,NNW,15.0,-,N/A,,Clear,340,2012-11-18 07:58:00
11:58 PM,7.0,-0.9,70,29.92,10.0,NNW,15.0,-,N/A,,Clear,340,2012-11-18 08:58:00